ECHO 2 DEB (METAL OBJ), 742

Orbit data source: Space-Track

ECHO 2 DEB (METAL OBJ), 742 is space debris in LEO originally from a launch on Sat, 25 Jan 1964 UTC launched from the Air Force Western Test Range (AFWTR). Debris objects in space refer to the collection of defunct objects orbiting the Earth. Examples of debris include non-operational satellites, rocket bodies, and fragments generated from explosions, collisions, or faulty payload assembly.

Loading next visibility...
Identifier
742, 1964-004C
Orbit
LEO
Country
Flag of USUS
Related business
Manufacturer
Grummann
Mission
Spacecraft
Bus & Motor
ECHO CANISTER, Unknown motor
Mass
35 kg wet, 35 kg dry
Launch date (UTC)
1964-01-25 (62 years ago)
Launch vehicle
Unknown
Launch site
Air Force Western Test Range (AFWTR)
Object type
Payload
Rocket body
Debris
Shape & HBR
Unknown shape, 0.9 m
Radar Cross Section
Medium (>0.1 m² and <1 m²)

Expand to show TLE details & history
Last TLE update: 13 hours ago

TLE from 13 hours ago
0 ECHO 2 DEB (METAL OBJ)
1 00742U 64004C   25340.61463805  .00000130  00000-0  25182-3 0  9999
2 00742  81.4671 213.0480 0170887 237.2653 121.1902 13.26260534991837
Epoch: 2025-12-06T14:45Z
TLE epoch observation values (Epoch: 2025-12-06T14:45:04.727Z)
Latitude
0.00002°
Longitude
-83.86154°
Altitude
1,232.013 km
Speed
7.206 km/s
True Right ascension
14h 12m 11s
True Declination
0° 00' 00"
Sunlit
Object was in daylight at epoch
Visualization orbit readout
Latitude
Unknown
Longitude
Unknown
Altitude
Unknown
Speed
Unknown
Apparent Right ascension
Unknown
Apparent Declination
Unknown
Sunlit
N/A
Visualization observer readout
Local Sidereal Time
02:08:42
Azimuth
Unknown
Elevation
Unknown
Doppler factor
Unknown
Orbital elements
Apogee altitude
1,286.963 km
Perigee altitude
1,029.392 km
Semi-major axis
7,536.314 km
Eccentricity
0.01709
Inclination
81.4671°
RAAN
213.048°
Arg. of periapsis
237.2653°
True anomaly
122.8468°
Mean anomaly
121.1902°
Eccentric anomaly
122.02035°
Mean motion
3.31745 °/min
Orbital period
108.52 mins
BSTAR
0.00025182
Loading maneuver chart data...
Computing Atmospheric mass density...
Loading historical data...
Loading historical data...
Loading historical data...
Loading historical data...
Loading historical data...
Loading historical data...
Loading historical data...

Documentation

Showing up to 5 results
|